Flag for Kuwait Weather past 2 weeks in Kuwait City, Kuwait

Now
90 °F

Clear.


Feels Like: 105 °F
Forecast: 89 / 110 °F
Wind: 3 mph from South

Location: Kuwait International Airport

Current Time: Aug 31, 2014 at 1:35:36 AM

Latest Report: Aug 30, 2014 at 11:00 PM


Visibility: 4 mi

Pressure: 29.56 "Hg

Humidity: 71%

Dew point: 79 °F

Location of Kuwait CityLocation

Historic Weather in Kuwait City — Graph

°F

Kuwait City temperature yesterday

Maximum temperature yesterday: 108 °F (at 12:00 PM)
Minimum temperature yesterday: 86 °F (at 3:00 AM)
Average temperature yesterday: 95 °F

Past Weeks' High & Low Weather Summary

 TemperatureHumidityPressure
High120 °F (Aug 16, 1:00 PM)94% (Aug 25, 2:00 AM)29.74 "Hg (Aug 25, 2:00 AM)
Low84 °F (Aug 24, 4:00 AM)6% (Aug 16, 4:00 PM)29.36 "Hg (Aug 16, 4:00 PM)
Average100 °F41%29.57 "Hg
* Reported Aug 15 11:00 PM — Aug 30 11:00 PM, Kuwait City, Weather by CustomWeather, © 2014

Note: Actual official high and low records may vary slightly from our data, if they occured in-between our weather recording intervals... More about our weather records

Advertising

Kuwait City weather history for previous 24 hours

 ConditionsComfort  
Time TempWeatherWind HumidityBarometerVisibility
11:00 PM
Aug 30
90 °FClear.3 mph71%29.56 "Hg4 mi
10:00 PM91 °FClear.6 mph59%29.56 "Hg4 mi
9:00 PM93 °FClear.5 mph59%29.59 "Hg4 mi
8:00 PM95 °FClear.7 mph63%29.56 "Hg4 mi
7:00 PM95 °FClear.9 mph60%29.56 "Hg4 mi
6:00 PM97 °FHaze.9 mph60%29.56 "Hg3 mi
5:00 PM99 °FSunny.13 mph57%29.56 "Hg3 mi
4:00 PM100 °FClear.13 mph53%29.56 "Hg4 mi
3:00 PM104 °FClear.14 mph48%29.56 "Hg4 mi
2:00 PM104 °FClear.15 mph45%29.56 "Hg4 mi
1:00 PM108 °FSunny.6 mph41%29.59 "Hg4 mi
12:00 PM108 °FSunny.7 mph32%29.59 "Hg4 mi
11:00 AM106 °FHaze.5 mph38%29.62 "Hg3 mi
10:30 AM102 °FHaze.6 mph42%29.65 "Hg3 mi
10:00 AM100 °FHaze.12 mph50%29.65 "Hg3 mi
9:00 AM97 °FHaze.6 mph56%29.68 "Hg2 mi
8:00 AM91 °FFog.6 mph75%29.65 "Hg1 mi
7:00 AM88 °FFog.7 mph89%29.65 "Hg1 mi
6:00 AM86 °FLight fog.8 mph94%29.62 "Hg1 mi
5:00 AM86 °FFog.7 mph94%29.62 "Hg1 mi
4:00 AM86 °FFog.7 mph94%29.59 "Hg1 mi
3:00 AM86 °FFog.6 mph94%29.59 "Hg1 mi
2:00 AM88 °FFog.6 mph84%29.59 "Hg1 mi
1:00 AM88 °FFog.7 mph84%29.59 "Hg2 mi
Weather by CustomWeather, © 2014

See weather overviewHow to use our weather pages